Regional Weather Roundup
Issued by NWS

Home | Current Version | Previous Version | Graphics & Text | Print | Product List | Glossary On
Versions: 1 2 3 4 5 6 7 8 9 10 11 12 13 14 15 16 17 18 19 20 21 22 23 24 25 26 27 28 29 30 31 32 33 34 35 36 37 38 39 40 41 42 43 44 45 46 47 48 49 50
000
ASUS43 KOAX 230402
RWRNE

WEATHER ROUNDUP FOR NEBRASKA
NATIONAL WEATHER SERVICE OMAHA NE
1100 PM CDT WED OCT 22 2014

NOTES: SATELLITE DATA IS BEING USED TO AUGMENT CLOUD COVER ABOVE
       12000 FEET.
       "FAIR" INDICATES FEW OR NO CLOUDS BELOW 12,000 FEET WITH NO
       SIGNIFICANT WEATHER AND/OR OBSTRUCTIONS TO VISIBILITY.

  * THESE STATIONS DO NOT REPORT WEATHER SUCH AS RAIN...SNOW OR FOG.

NEZ001>004-019>022-054>056-230500-
NEBRASKA PANHANDLE

CITY           SKY/WX    TMP DP  RH WIND       PRES   REMARKS
SCOTTSBLUFF    CLEAR     46  29  51 E3        30.10R
ALLIANCE       CLEAR     35  28  75 CALM      30.09S
CHADRON        CLEAR     38  31  76 W7        30.05S WCI  33
KIMBALL        CLEAR     46  36  69 S5        30.12S
SIDNEY         MOCLDY    46  37  71 SW9       30.12S
$$

NEZ057>060-069>072-079>082-230500-
SOUTHWEST NEBRASKA

CITY           SKY/WX    TMP DP  RH WIND       PRES   REMARKS
NORTH PLATTE   CLEAR     47  46  97 CALM      30.08S
IMPERIAL       PTCLDY    47  34  60 SE5       30.09S
LEXINGTON      PTCLDY    47  46  94 CALM      30.07S FOG
MCCOOK         CLEAR     50  47  89 NW5       30.07S
OGALLALA       CLEAR     42  36  81 W5        30.08F
$$

NEZ005>010-023>029-035>040-094-230500-
NORTH CENTRAL NEBRASKA

CITY           SKY/WX    TMP DP  RH WIND       PRES   REMARKS
VALENTINE      CLEAR     44  38  79 S5        30.05S
AINSWORTH      CLEAR     42  38  87 SW3       30.05S
BROKEN BOW     FOG       49  47  93 CALM      30.07R VSB 3/4
O`NEILL        FOG       47  47 100 SW3       30.05S VSB 1/2
ORD            FOG       46  45  96 S5        30.05S VSB 3/4
THEDFORD       CLEAR     44  42  92 CALM      30.08S
$$

NEZ041-046>049-061>064-073>077-083>087-230500-
SOUTH CENTRAL NEBRASKA

CITY           SKY/WX    TMP DP  RH WIND       PRES   REMARKS
GRAND ISLAND   CLOUDY    59  57  93 NW5       30.05S FOG
AURORA         MOCLDY    59  59 100 SW5       30.05R
HASTINGS       CLOUDY    58  55  90 CALM      30.05S FOG
HEBRON         CLOUDY    62  58  86 S7        30.05S
HOLDREGE       FOG       47  46  97 CALM      30.06R VSB 1/4
KEARNEY *      CLOUDY    50  48  93 W5        30.07R VSB<1/4
YORK           CLOUDY    59  59 100 S5        30.04R
$$

NEZ011>018-030>034-042>045-230500-
NORTHEAST NEBRASKA

CITY           SKY/WX    TMP DP  RH WIND       PRES   REMARKS
NORFOLK        CLOUDY    56  55  97 NW6       30.04S
ALBION         FOG       52  50  93 CALM      30.05S VSB 1
BLAIR          LGT RAIN  63  60  89 S12       30.04S
COLUMBUS *     CLOUDY    61  57  88 W5        30.05S
FREMONT        CLOUDY    64  60  88 S9        30.03S
TEKAMAH        LGT RAIN  62  59  90 SE6       30.02F
WAYNE          CLOUDY    58  57  97 NW3       30.04S
$$

NEZ050>053-065>068-078-088>093-230500-
SOUTHEAST NEBRASKA

CITY           SKY/WX    TMP DP  RH WIND       PRES   REMARKS
LINCOLN        CLOUDY    62  59  90 S12       30.05S
OMAHA EPPLEY   CLOUDY    63  60  90 S8        30.05R
BEATRICE       LGT RAIN  61  59  93 S7        30.08F
FALLS CITY     CLOUDY    65  56  72 S10       30.06S
NEBRASKA CITY  LGT RAIN  61  61  99 CALM      30.09R
PLATTSMOUTH    LGT RAIN  62  60  94 SE5       30.06F
$$

NEZ044-045-051>053-067-230500-
OMAHA AREA

CITY           SKY/WX    TMP DP  RH WIND       PRES   REMARKS
OMAHA EPPLEY   CLOUDY    63  60  90 S8        30.05R
BLAIR          LGT RAIN  63  60  89 S12       30.04S
FREMONT        CLOUDY    64  60  88 S9        30.03S
MILLARD        CLOUDY    64  60  88 S3        30.05R
OFFUTT AFB     LGT RAIN  62  62 100 S6        30.05S
PLATTSMOUTH    LGT RAIN  62  60  94 SE5       30.06F
WAHOO          MOCLDY    62  58  86 S10       30.03F
$$



USA.gov is the U.S. government's official web portal to all federal, state and local government web resources and services.